Location: Salillas
(41.9950°N, 0.2228°W)
Time: 03:39:47
(UTC+00:00)

SL-24 R/B - Pass Details

Date: 29 March 2020
Orbit: 505 x 1003 km, 97.4° (Epoch: 31 May)

Event Time Altitude Azimuth Distance (km) Brightness Sun altitude
Rises 19:32:29 0° 18° (NNE) 3,115 7.7 -13.3°
Reaches altitude 10° 19:35:01 10° 26° (NNE) 2,107 6.7 -13.8°
Maximum altitude 19:39:18 40° 96° (E) 906 4.4 -14.5°
Drops below altitude 10° 19:43:04 10° 167° (SSE) 1,855 6.2 -15.2°
Enters shadow 19:43:20 - 168° (SSE) 1,958 6.3 -15.2°
